Location: Allos
(44.2333°N, 6.6333°E)
Time: 13:12:05
(UTC+00:00)

YAOGAN 1 - Pass Details

Date: 01 December 2020
Orbit: 618 x 620 km, 97.9° (Epoch: 26 January)

Event Time Altitude Azimuth Distance (km) Brightness Sun altitude
Exits shadow 17:09:13 18° 55° (NE) 1,533 4.0 -12.8°
Drops below altitude 10° 17:11:42 10° 20° (NNE) 1,998 4.8 -13.2°
Sets 17:14:26 0° 2° (N) 2,909 5.8 -13.7°
